Location: Newark
(40.0251°N, 85.2247°W)
Time: 22:30:03
(UTC+00:00)

Hubble Space Telescope - Pass Details

Date: 19 December 2019
Orbit: 536 x 540 km, 28.5° (Epoch: 23 January)

Event Time Altitude Azimuth Distance (km) Brightness Sun altitude
Rises 12:22:03 0° 247° (WSW) 2,676 3.9 -6.9°
Reaches altitude 10° 12:25:25 10° 219° (SW) 1,785 3.3 -6.4°
Maximum altitude 12:27:17 13° 192° (SSW) 1,610 3.4 -6.0°
Drops below altitude 10° 12:29:10 10° 165° (SSE) 1,783 4.1 -5.7°
Sets 12:32:32 0° 136° (SE) 2,673 6.0 -5.1°
